TimeCDT,TemperatureF,Dew PointF,Humidity,Sea Level PressureIn,VisibilityMPH,Wind Direction,Wind SpeedMPH,Gust SpeedMPH,PrecipitationIn,Events,Conditions,WindDirDegrees,DateUTC
12:53 AM,68.0,46.0,45,29.88,10.0,SE,9.2,17.3,N/A,,Clear,130,2013-05-17 05:53:00
1:53 AM,66.0,41.0,40,29.90,10.0,SE,9.2,-,N/A,,Partly Cloudy,130,2013-05-17 06:53:00
2:53 AM,64.0,39.0,40,29.92,10.0,SE,8.1,-,N/A,,Overcast,130,2013-05-17 07:53:00
3:53 AM,61.0,39.9,46,29.93,10.0,ESE,6.9,-,0.00,Rain,Light Rain,120,2013-05-17 08:53:00
4:53 AM,55.0,46.0,72,29.99,10.0,NE,4.6,-,0.02,Rain,Light Rain,50,2013-05-17 09:53:00
5:53 AM,53.1,45.0,74,30.02,6.0,Variable,4.6,-,0.11,Rain,Rain,0,2013-05-17 10:53:00
7:50 AM,50.0,46.4,87,30.06,2.5,East,4.6,-,0.20,Rain,Rain,100,2013-05-17 12:50:00
7:53 AM,50.0,46.0,86,30.05,3.0,East,4.6,-,0.21,Rain,Rain,80,2013-05-17 12:53:00
8:53 AM,50.0,46.9,89,30.04,10.0,ESE,10.4,-,0.07,Rain,Light Rain,110,2013-05-17 13:53:00
9:53 AM,51.1,46.9,86,30.03,9.0,SE,5.8,-,0.02,Rain,Light Rain,130,2013-05-17 14:53:00
10:03 AM,51.8,48.2,88,30.04,8.0,ESE,4.6,-,0.01,Rain,Light Rain,120,2013-05-17 15:03:00
10:14 AM,51.8,48.2,88,30.04,6.0,East,4.6,-,0.02,Rain,Light Rain,100,2013-05-17 15:14:00
10:22 AM,51.8,48.2,88,30.04,5.0,Calm,Calm,-,0.04,Rain,Light Rain,0,2013-05-17 15:22:00
10:53 AM,52.0,50.0,93,30.03,9.0,East,4.6,-,0.10,Rain,Light Rain,100,2013-05-17 15:53:00
11:36 AM,53.6,51.8,94,30.02,8.0,SE,4.6,-,0.05,Rain,Light Rain,130,2013-05-17 16:36:00
11:39 AM,53.6,51.8,94,30.02,8.0,SE,4.6,-,0.05,Rain,Light Rain,130,2013-05-17 16:39:00
11:53 AM,54.0,52.0,93,30.02,9.0,SSE,5.8,-,0.06,Rain,Light Rain,160,2013-05-17 16:53:00
12:53 PM,57.0,54.0,89,30.02,10.0,East,4.6,-,0.04,Rain,Light Rain,90,2013-05-17 17:53:00
2:06 PM,59.0,55.4,88,30.02,10.0,Calm,Calm,-,0.00,,Overcast,0,2013-05-17 19:06:00
2:53 PM,61.0,57.0,87,30.01,9.0,SE,3.5,-,0.01,Rain,Light Rain,130,2013-05-17 19:53:00
3:53 PM,62.1,55.9,80,30.00,10.0,ESE,4.6,-,0.00,Rain,Light Rain,110,2013-05-17 20:53:00
4:16 PM,62.6,57.2,82,30.00,10.0,ENE,4.6,-,0.00,,Overcast,70,2013-05-17 21:16:00
4:53 PM,63.0,57.9,84,29.99,10.0,ENE,5.8,-,0.00,,Mostly Cloudy,60,2013-05-17 21:53:00
5:53 PM,64.0,57.0,78,29.99,10.0,East,9.2,-,0.00,,Clear,80,2013-05-17 22:53:00
6:53 PM,62.1,55.0,78,29.98,10.0,East,11.5,-,N/A,,Partly Cloudy,80,2013-05-17 23:53:00
7:53 PM,61.0,54.0,78,29.99,10.0,East,3.5,-,N/A,,Partly Cloudy,100,2013-05-18 00:53:00
8:53 PM,60.1,54.0,80,30.00,10.0,ESE,4.6,-,N/A,,Clear,110,2013-05-18 01:53:00
9:53 PM,59.0,53.1,81,30.01,10.0,Calm,Calm,-,N/A,,Partly Cloudy,0,2013-05-18 02:53:00
10:53 PM,57.9,51.1,78,30.02,10.0,ESE,6.9,-,N/A,,Clear,110,2013-05-18 03:53:00
11:53 PM,55.9,50.0,80,30.03,10.0,SE,4.6,-,N/A,,Partly Cloudy,130,2013-05-18 04:53:00